DELTA 1 DEB, 7182

Orbit data source: Space-Track

DELTA 1 DEB, 7182 is space debris in SSO originally from a launch on Tue, 06 Nov 1973 UTC launched from the Air Force Western Test Range (AFWTR). Debris objects in space refer to the collection of defunct objects orbiting the Earth. Examples of debris include non-operational satellites, rocket bodies, and fragments generated from explosions, collisions, or faulty payload assembly.

Loading next visibility...
Identifier
7182, 1973-086ET
Orbit
SSO
Country
Flag of USUS
Related business
Manufacturer
Unknown
Mission
Spacecraft
Bus & Motor
Unknown
Mass
Unknown
Launch date (UTC)
1973-11-06 (52 years ago)
Launch vehicle
Unknown
Launch site
Air Force Western Test Range (AFWTR)
Object type
Payload
Rocket body
Debris
Shape & HBR
Unknown shape, 0.1 m
Radar Cross Section
Small (<0.1 m²)

Expand to show TLE details & history
Last TLE update: 1 day ago

TLE from 1 day ago
0 DELTA 1 DEB
1 07182U 73086ET  25352.87811503  .00000354  00000-0  14655-2 0  9997
2 07182 102.5077 134.5796 0339535 225.5410 292.8891 12.77250719664909
Epoch: 2025-12-18T21:04Z
TLE epoch observation values (Epoch: 2025-12-18T21:04:29.138Z)
Latitude
24.60164°
Longitude
-83.46889°
Altitude
1,260.825 km
Speed
7.271 km/s
True Right ascension
21h 21m 31s
True Declination
24° 28' 49"
Sunlit
Object was in daylight at epoch
Visualization orbit readout
Latitude
Unknown
Longitude
Unknown
Altitude
Unknown
Speed
Unknown
Apparent Right ascension
Unknown
Apparent Declination
Unknown
Sunlit
N/A
Visualization observer readout
Local Sidereal Time
05:46:53
Azimuth
Unknown
Elevation
Unknown
Doppler factor
Unknown
Orbital elements
Apogee altitude
1,612.498 km
Perigee altitude
1,087.697 km
Semi-major axis
7,728.234 km
Eccentricity
0.03395
Inclination
102.5077°
RAAN
134.5796°
Arg. of periapsis
225.541°
True anomaly
289.24701°
Mean anomaly
292.8891°
Eccentric anomaly
291.07382°
Mean motion
3.19465 °/min
Orbital period
112.69 mins
BSTAR
0.0014655
Loading maneuver chart data...
Computing Atmospheric mass density...
Loading historical data...
Loading historical data...
Loading historical data...
Loading historical data...
Loading historical data...
Loading historical data...
Loading historical data...

Documentation

Showing up to 5 results
|